Tracking 29892 objects as of 21-Nov-2024
HD Live streaming from Space Station
objects crossing your sky now

TITAN 4B CENTAUR R/B

Track TITAN 4B CENTAUR R/B now!


NORAD ID: 25337
Int'l Code: 1998-029B
Perigee: 35,591.7 km
Apogee: 35,999.9 km
Inclination: 8.1 °
Period: 1,436.2 minutes
Semi major axis: 42166 km
RCS: Unknown
Launch date: May 9, 1998
Source: United States (US)
Launch site: AIR FORCE EASTERN TEST RANGE (AFETR)

Note: This is a ROCKET BODY
Your satellite tracking list
Your tracking list is empty




NASA's NSSDC Master Catalog

Two Line Element Set (TLE):
1 25337U 98029B   24324.77423536  .00000006  00000-0  00000-0 0  9996
2 25337   8.0748 341.9700 0048408 168.0420 192.0169  1.00264379 20088
Source of the keplerian elements: McCants